Hanford, WA
on Wednesday, February 6, 2013

Wednesday
Previous Day Next Day
Daily Summary
 ActualAverage (KMWH)Record (KMWH)
Temperature
Mean Temperature °F 33°F  
Max Temperature 52°F 41°F 50°F (1998)
Min Temperature 37°F 26°F -4°F (1985)
Degree Days
Heating Degree Days 20 32  
Month to date heating degree days 193  
Since 1 July heating degree days 3867  
Cooling Degree Days 0 0  
Month to date cooling degree days 0  
Year to date cooling degree days 0  
Moisture
Dew Point 32°F   
Average Humidity 60    
Maximum Humidity 78    
Minimum Humidity 43    
Precipitation
Precipitation 0.00 in 0.04 in 0.14 in (1999)
Month to date precipitation 0.23  
Year to date precipitation 1.37  
Wind
Wind Speed 12 mph   
Max Wind Speed 20 mph   
Max Gust Speed 26 mph   
Visibility 15 miles   
Events     

Key: T is trace of precipitation, MM is missing value
Source: NWS Daily Summary
Time(PST)TemperatureDew PointHumidity Pressure Visibility Wind DirectionWind SpeedGust SpeedPrecipitationEvents Conditions
12:50 AM 39.9°F 31.6°F 72% 29.95 in 15.0 miles WSW 12.7 mph - N/A   Scattered Clouds
1:50 AM 43.7°F 35.2°F 72% 29.96 in 15.0 miles WSW 9.2 mph - N/A   Overcast
2:50 AM 43.9°F 32.9°F 65% 29.98 in 15.0 miles SW 13.8 mph - N/A   Overcast
3:50 AM 43.7°F 33.6°F 68% 29.97 in 15.0 miles SW 16.1 mph - N/A   Mostly Cloudy
4:50 AM 42.3°F 32.4°F 68% 29.99 in 15.0 miles SW 13.8 mph - N/A   Partly Cloudy
5:50 AM 37.9°F 30.6°F 75% 30.00 in 15.0 miles NW 5.8 mph - N/A   Partly Cloudy
6:50 AM 39.4°F 32.0°F 75% 30.01 in 15.0 miles WSW 9.2 mph - N/A   Partly Cloudy
7:50 AM 41.7°F 31.3°F 66% 30.02 in 15.0 miles West 9.2 mph - N/A   Partly Cloudy
8:50 AM 46.0°F 31.8°F 58% 30.03 in 15.0 miles WNW 9.2 mph - N/A   Mostly Cloudy
9:50 AM 48.2°F 30.7°F 51% 30.06 in 15.0 miles SW 12.7 mph - N/A   Mostly Cloudy
10:50 AM 50.2°F 31.3°F 48% 30.06 in 15.0 miles SSW 18.4 mph - N/A   Overcast
11:50 AM 51.6°F 29.8°F 43% 30.06 in 15.0 miles SW 19.6 mph 26.5 mph N/A   Overcast
12:50 PM 51.1°F 31.3°F 47% 30.06 in 15.0 miles SW 17.3 mph - N/A   Overcast
1:50 PM 52.2°F 30.7°F 44% 30.04 in 15.0 miles SW 17.3 mph - N/A   Overcast
2:50 PM 51.3°F 30.4°F 45% 30.04 in 15.0 miles SSW 16.1 mph - N/A   Overcast
3:50 PM 50.7°F 30.9°F 47% 30.00 in 15.0 miles SSW 12.7 mph - N/A   Overcast
4:50 PM 47.5°F 30.6°F 52% 30.00 in 15.0 miles SSW 5.8 mph - N/A   Overcast
5:50 PM 46.9°F 31.1°F 54% 29.99 in 15.0 miles SSE 9.2 mph - N/A   Overcast
6:50 PM 45.7°F 31.6°F 58% 29.99 in 15.0 miles SSE 9.2 mph - N/A   Overcast
10:50 PM 38.5°F 31.6°F 76% 29.92 in 15.0 miles NNW 4.6 mph - N/A   Overcast
11:50 PM 38.3°F 32.0°F 78% 29.91 in 15.0 miles NW 9.2 mph - N/A   Overcast
Moon Phase
Feb. 06 Feb. 10 Feb. 17 Feb. 25 Mar. 04
Sunrise:07:15 AM (PST) Moon Rise:04:10 AM (PST)2/6
Sunset:05:10 PM (PST) Moon Set:01:27 PM (PST)2/6

Copyright © 2014 The Weather Underground, Inc.